| time (UTC) | temp F | wind direction | speed MPH | gust MPH | rain 1hr in | rain 24hr in | rain mn in | humidity % | barometer mb |
| 20260504021830 | 51 | 180 | 0.0 | 1.0 | 0.00 | 0.00 | 0.00 | 51 | 1013.1 |
| 20260504020830 | 51 | 218 | 1.0 | 1.0 | 0.00 | 0.00 | 0.00 | 51 | 1013.1 |
| 20260504015829 | 51 | 222 | 0.0 | 1.0 | 0.00 | 0.00 | 0.00 | 50 | 1012.7 |
| 20260504014828 | 51 | 221 | 0.0 | 0.0 | 0.00 | 0.00 | 0.00 | 51 | 1013.1 |
| 20260504013828 | 52 | 212 | 0.0 | 0.0 | 0.00 | 0.00 | 0.00 | 50 | 1012.7 |
| 20260504012827 | 52 | 212 | 0.0 | 0.0 | 0.00 | 0.00 | 0.00 | 50 | 1012.7 |
| 20260504011826 | 52 | 213 | 0.0 | 1.0 | 0.00 | 0.00 | 0.00 | 49 | 1012.8 |
| 20260504010825 | 52 | 279 | 0.0 | 2.0 | 0.00 | 0.00 | 0.00 | 49 | 1012.4 |
| 20260504005825 | 53 | 336 | 0.0 | 0.0 | 0.00 | 0.00 | 0.00 | 49 | 1012.4 |
| 20260504004825 | 53 | 336 | 0.0 | 0.0 | 0.00 | 0.00 | 0.00 | 48 | 1012.4 |
| 20260504003824 | 54 | 336 | 0.0 | 0.0 | 0.00 | 0.00 | 0.00 | 47 | 1012.1 |
| 20260504002823 | 55 | 336 | 0.0 | 0.0 | 0.00 | 0.00 | 0.00 | 45 | 1012.1 |
| 20260504001823 | 56 | 335 | 0.0 | 0.0 | 0.00 | 0.00 | 0.00 | 43 | 1012.2 |
| 20260504000822 | 56 | 335 | 0.0 | 0.0 | 0.00 | 0.00 | 0.00 | 42 | 1011.9 |
| 20260503235821 | 57 | 333 | 0.0 | 1.0 | 0.00 | 0.00 | 0.00 | 40 | 1011.7 |
| 20260503234821 | 58 | 333 | 0.0 | 1.0 | 0.00 | 0.00 | 0.00 | 39 | 1011.7 |
| 20260503233820 | 58 | 292 | 1.0 | 3.0 | 0.00 | 0.00 | 0.00 | 37 | 1011.7 |
| 20260503232820 | 59 | 307 | 2.0 | 4.0 | 0.00 | 0.00 | 0.00 | 36 | 1011.4 |
| 20260503231819 | 59 | 315 | 3.0 | 4.0 | 0.00 | 0.00 | 0.00 | 36 | 1011.4 |
| 20260503230748 | 59 | 283 | 2.0 | 5.0 | 0.00 | 0.00 | 0.00 | 34 | 1011.4 |
| 20260503225747 | 60 | 282 | 3.0 | 6.0 | 0.00 | 0.00 | 0.00 | 35 | 1011.4 |
| 20260503224644 | 60 | 289 | 2.0 | 5.0 | 0.00 | 0.00 | 0.00 | 34 | 1011.4 |
| 20260503223613 | 60 | 290 | 2.0 | 6.0 | 0.00 | 0.00 | 0.00 | 34 | 1011.4 |
| 20260503222612 | 61 | 306 | 2.0 | 5.0 | 0.00 | 0.00 | 0.00 | 32 | 1011.4 |
| 20260503221611 | 61 | 297 | 3.0 | 5.0 | 0.00 | 0.00 | 0.00 | 32 | 1011.4 |
| 20260503220611 | 61 | 285 | 4.0 | 6.0 | 0.00 | 0.00 | 0.00 | 32 | 1011.4 |
| 20260503215610 | 61 | 310 | 3.0 | 11.0 | 0.00 | 0.00 | 0.00 | 32 | 1011.1 |
| 20260503214609 | 61 | 278 | 3.0 | 10.0 | 0.00 | 0.00 | 0.00 | 31 | 1011.4 |
| 20260503213405 | 61 | 287 | 3.0 | 9.0 | 0.00 | 0.00 | 0.00 | 33 | 1011.1 |
| 20260503212404 | 61 | 287 | 3.0 | 7.0 | 0.00 | 0.00 | 0.00 | 33 | 1011.1 |
| 20260503211404 | 61 | 294 | 3.0 | 10.0 | 0.00 | 0.00 | 0.00 | 32 | 1011.1 |
| 20260503210403 | 61 | 283 | 4.0 | 9.0 | 0.00 | 0.00 | 0.00 | 32 | 1011.4 |
| 20260503205403 | 60 | 310 | 3.0 | 10.0 | 0.00 | 0.00 | 0.00 | 34 | 1011.4 |
| 20260503204402 | 60 | 282 | 4.0 | 8.0 | 0.00 | 0.00 | 0.00 | 35 | 1011.4 |
| 20260503203330 | 60 | 280 | 6.0 | 13.0 | 0.00 | 0.00 | 0.00 | 34 | 1011.7 |
| 20260503202330 | 60 | 312 | 4.0 | 9.0 | 0.00 | 0.00 | 0.00 | 32 | 1011.4 |
| 20260503201329 | 60 | 315 | 2.0 | 8.0 | 0.00 | 0.00 | 0.00 | 35 | 1011.4 |
| 20260503200226 | 60 | 350 | 2.0 | 7.0 | 0.00 | 0.00 | 0.00 | 37 | 1011.7 |
| 20260503195226 | 61 | 278 | 6.0 | 12.0 | 0.00 | 0.00 | 0.00 | 34 | 1011.7 |
| 20260503194052 | 60 | 304 | 3.0 | 12.0 | 0.00 | 0.00 | 0.00 | 36 | 1011.7 |
| 20260503193051 | 59 | 285 | 3.0 | 11.0 | 0.00 | 0.00 | 0.00 | 37 | 1011.7 |
| 20260503192050 | 59 | 286 | 3.0 | 10.0 | 0.00 | 0.00 | 0.00 | 35 | 1012.1 |
| 20260503191050 | 59 | 283 | 4.0 | 10.0 | 0.00 | 0.00 | 0.00 | 35 | 1011.7 |
| 20260503190049 | 60 | 278 | 4.0 | 12.0 | 0.00 | 0.00 | 0.00 | 34 | 1012.1 |
| 20260503185048 | 59 | 301 | 3.0 | 7.0 | 0.00 | 0.00 | 0.00 | 37 | 1012.1 |
| 20260503184017 | 58 | 278 | 4.0 | 10.0 | 0.00 | 0.00 | 0.00 | 36 | 1012.4 |
| 20260503183016 | 56 | 291 | 3.0 | 14.0 | 0.00 | 0.00 | 0.00 | 39 | 1012.4 |
| 20260503182016 | 57 | 339 | 3.0 | 9.0 | 0.00 | 0.00 | 0.00 | 36 | 1012.4 |
| 20260503181015 | 57 | 288 | 5.0 | 10.0 | 0.00 | 0.00 | 0.00 | 37 | 1012.4 |
| 20260503180014 | 57 | 323 | 3.0 | 8.0 | 0.00 | 0.00 | 0.00 | 36 | 1012.4 |
| 20260503174911 | 57 | 273 | 2.0 | 6.0 | 0.00 | 0.00 | 0.00 | 37 | 1012.4 |
| 20260503173911 | 57 | 289 | 3.0 | 10.0 | 0.00 | 0.00 | 0.00 | 36 | 1012.7 |
| 20260503172910 | 57 | 283 | 5.0 | 12.0 | 0.00 | 0.00 | 0.00 | 37 | 1012.4 |
| 20260503171838 | 57 | 298 | 5.0 | 9.0 | 0.00 | 0.00 | 0.00 | 37 | 1012.7 |
| 20260503170838 | 55 | 325 | 3.0 | 13.0 | 0.00 | 0.00 | 0.00 | 43 | 1012.7 |
| 20260503150728 | 51 | 293 | 2.0 | 10.0 | 0.00 | 0.00 | 0.00 | 49 | 1013.4 |
| 20260503080606 | 43 | 292 | 0.0 | 0.0 | 0.00 | 0.00 | 0.00 | 72 | 1010.4 |
| 20260503072533 | 44 | 292 | 0.0 | 0.0 | 0.00 | 0.00 | 0.00 | 71 | 1010.1 |
| 20260503071532 | 44 | 292 | 0.0 | 0.0 | 0.00 | 0.00 | 0.00 | 70 | 1010.1 |
| 20260503070532 | 44 | 292 | 0.0 | 0.0 | 0.00 | 0.00 | 0.00 | 70 | 1010.1 |
| 20260503054354 | 46 | 290 | 0.0 | 0.0 | 0.00 | 0.00 | 0.00 | 63 | 1010.4 |
| 20260503053353 | 46 | 290 | 0.0 | 0.0 | 0.00 | 0.00 | 0.00 | 62 | 1010.8 |
| 20260503052353 | 46 | 290 | 0.0 | 0.0 | 0.00 | 0.00 | 0.00 | 61 | 1010.8 |
| 20260503051352 | 46 | 290 | 0.0 | 0.0 | 0.00 | 0.00 | 0.00 | 61 | 1010.7 |
| 20260503050351 | 47 | 290 | 0.0 | 0.0 | 0.00 | 0.00 | 0.00 | 60 | 1010.7 |
| 20260503045350 | 47 | 290 | 0.0 | 0.0 | 0.00 | 0.00 | 0.00 | 59 | 1011.1 |
| 20260503044318 | 47 | 290 | 1.0 | 1.0 | 0.00 | 0.00 | 0.00 | 58 | 1011.1 |
| 20260503043318 | 47 | 290 | 1.0 | 2.0 | 0.00 | 0.00 | 0.00 | 58 | 1011.1 |
| 20260503042317 | 48 | 290 | 1.0 | 1.0 | 0.00 | 0.00 | 0.00 | 57 | 1011.1 |
| 20260503041317 | 48 | 290 | 1.0 | 3.0 | 0.00 | 0.00 | 0.00 | 56 | 1011.1 |
| 20260503040316 | 48 | 290 | 2.0 | 3.0 | 0.00 | 0.00 | 0.00 | 56 | 1011.4 |
| 20260503035315 | 48 | 289 | 1.0 | 3.0 | 0.00 | 0.00 | 0.00 | 55 | 1011.4 |
| 20260503034314 | 49 | 288 | 2.0 | 3.0 | 0.00 | 0.00 | 0.00 | 55 | 1011.4 |
| 20260503033314 | 49 | 288 | 1.0 | 3.0 | 0.00 | 0.00 | 0.00 | 55 | 1011.1 |
| 20260503032242 | 49 | 288 | 1.0 | 2.0 | 0.00 | 0.00 | 0.00 | 55 | 1011.1 |
| 20260503031241 | 49 | 287 | 0.0 | 3.0 | 0.00 | 0.00 | 0.00 | 54 | 1011.1 |
| 20260503030241 | 50 | 282 | 3.0 | 4.0 | 0.00 | 0.00 | 0.00 | 53 | 1011.0 |
| 20260503025240 | 50 | 296 | 2.0 | 4.0 | 0.00 | 0.00 | 0.00 | 53 | 1011.0 |
| 20260503024240 | 50 | 303 | 1.0 | 2.0 | 0.00 | 0.00 | 0.00 | 52 | 1011.0 |
| 20260503023239 | 50 | 320 | 1.0 | 2.0 | 0.00 | 0.00 | 0.00 | 52 | 1011.4 |